OE-11344 Weather Reports


time (UTC)temp
C
wind
direction
speed
KPH
gust
KPH
rain 1hr
cm
rain 24hr
cm
rain mn
cm
humidity
%
barometer
mb
20260903084125 14 278 6.4 9.7 0.00 0.30 0.00 62 858.1
20260903083513 14 276 8.0 14.5 0.00 0.30 0.00 60 858.1
20260903082513 14 282 6.4 9.7 0.00 0.30 0.00 59 857.9
20260903081126 15 254 1.6 6.4 0.00 0.30 0.00 65 857.9
20260903080513 15 176 1.6 6.4 0.00 0.30 0.00 63 857.9
20260903075513 15 127 0.0 4.8 0.00 0.30 0.00 64 857.9
20260903074126 14 100 3.2 8.0 0.00 0.30 0.00 64 857.9
20260903073512 13 95 4.8 8.0 0.00 0.30 0.00 64 857.9
20260903072512 12 92 6.4 9.7 0.00 0.30 0.00 70 857.9
20260903071126 11 97 6.4 11.3 0.00 0.30 0.00 74 857.9
20260903070513 12 91 6.4 9.7 0.00 0.30 0.00 66 857.9
20260903065513 11 81 4.8 8.0 0.00 0.30 0.00 72 858.0
20260903064125 10 77 4.8 6.4 0.00 0.30 0.00 80 857.9
20260903063512 10 66 3.2 6.4 0.00 0.30 0.00 79 857.9
20260903062513 10 72 3.2 4.8 0.00 0.30 0.00 80 857.9
20260903061126 10 81 4.8 6.4 0.00 0.30 0.00 79 857.8
20260903060513 10 71 4.8 6.4 0.00 0.30 0.00 81 857.8
20260903055512 10 86 3.2 8.0 0.00 0.30 0.00 80 857.8
20260903054125 10 73 4.8 8.0 0.00 0.30 0.00 76 857.8
20260903053513 10 81 3.2 6.4 0.00 0.30 0.00 80 857.7
20260903052513 10 67 3.2 4.8 0.00 0.30 0.00 81 857.6
20260903051126 10 73 3.2 6.4 0.00 0.30 0.00 80 857.5
20260903050512 10 85 4.8 8.0 0.00 0.30 0.00 80 857.5
20260903045513 10 82 4.8 9.7 0.00 0.30 0.00 78 857.5
20260903044125 10 87 4.8 6.4 0.00 0.30 0.00 80 857.5
20260903043512 10 75 3.2 6.4 0.00 0.30 0.00 79 857.4
20260903042513 10 75 3.2 6.4 0.00 0.30 0.00 80 857.5
20260903041125 9 71 3.2 8.0 0.00 0.30 0.00 83 857.5
20260903040513 10 80 4.8 8.0 0.00 0.30 0.00 81 857.5
20260903035513 10 84 3.2 6.4 0.00 0.30 0.00 81 857.5
20260903034512 10 77 3.2 6.4 0.00 0.30 0.00 78 857.6
20260903033513 10 74 4.8 6.4 0.00 0.30 0.00 82 857.6
20260903032513 10 71 3.2 6.4 0.00 0.30 0.00 82 857.6
20260903031126 10 78 3.2 6.4 0.00 0.30 0.00 82 857.5
20260903030513 10 87 4.8 6.4 0.00 0.30 0.00 81 857.6
20260903025513 10 67 3.2 6.4 0.00 0.30 0.00 80 857.6
20260903024513 10 76 3.2 6.4 0.00 0.30 0.00 82 857.6
20260903023513 10 73 4.8 8.0 0.00 0.30 0.00 84 857.5
20260903022513 10 81 4.8 8.0 0.00 0.30 0.00 85 857.6
20260903021125 10 80 4.8 6.4 0.00 0.30 0.00 83 857.6
20260903020513 10 80 3.2 8.0 0.00 0.30 0.00 84 857.7
20260903015513 11 75 3.2 6.4 0.00 0.30 0.00 83 857.7
20260903014125 10 74 3.2 4.8 0.00 0.30 0.00 86 857.7
20260903013512 10 69 3.2 4.8 0.00 0.30 0.00 88 857.7
20260903012512 11 54 3.2 4.8 0.00 0.30 0.00 85 857.7
20260903011126 10 60 3.2 6.4 0.00 0.30 0.00 88 857.7
20260903010513 11 72 3.2 6.4 0.00 0.30 0.00 83 857.7
20260903005513 10 54 3.2 4.8 0.00 0.30 0.00 90 857.7
20260903004126 11 67 4.8 4.8 0.00 0.30 0.00 85 857.7
20260903003513 10 42 3.2 4.8 0.00 0.30 0.00 91 857.7
20260903002513 10 41 1.6 3.2 0.00 0.30 0.00 91 857.6
20260903001525 10 54 3.2 4.8 0.00 0.30 0.00 86 857.7
20260903000512 11 61 3.2 6.4 0.00 0.30 0.00 83 857.7
20260902235512 10 58 3.2 6.4 0.00 0.30 0.00 90 857.7
20260902234126 10 62 4.8 6.4 0.00 0.30 0.00 88 857.7
20260902233512 10 47 1.6 4.8 0.00 0.30 0.00 92 857.7
20260902232512 10 63 3.2 6.4 0.00 0.30 0.00 88 857.7
20260902231513 10 72 6.4 9.7 0.00 0.30 0.00 83 857.7
20260902230512 9 55 3.2 6.4 0.00 0.30 0.00 92 857.6
20260902225513 10 62 4.8 6.4 0.00 0.30 0.00 89 857.6
20260902224126 10 62 4.8 9.7 0.03 0.30 0.00 84 857.6
20260902223513 10 74 6.4 8.0 0.03 0.30 0.00 86 857.6
20260902222513 10 87 4.8 6.4 0.05 0.30 0.00 91 857.6
20260902221126 9 89 6.4 8.0 0.08 0.30 0.00 93 857.5
20260902220512 10 71 6.4 9.7 0.08 0.30 0.30 92 857.4
20260902215513 10 74 3.2 6.4 0.08 0.30 0.30 92 857.4
20260902214126 10 47 1.6 9.7 0.08 0.30 0.30 94 857.4
20260902213512 10 62 1.6 11.3 0.05 0.28 0.28 93 857.5
20260902211126 10 87 4.8 6.4 0.00 0.23 0.23 94 857.7
20260902210513 10 83 6.4 9.7 0.05 0.23 0.23 94 857.6
20260902205513 10 87 4.8 8.0 0.23 0.23 0.23 94 857.5
20260902204127 11 59 4.8 9.7 0.23 0.23 0.23 92 857.5
20260902203512 11 84 4.8 8.0 0.23 0.23 0.23 90 857.4
20260902202513 11 90 6.4 11.3 0.23 0.23 0.23 92 857.5
20260902201126 11 7 3.2 8.0 0.23 0.23 0.23 90 857.4
20260902200513 11 87 3.2 11.3 0.23 0.23 0.23 91 857.5
20260902195513 12 60 3.2 11.3 0.18 0.18 0.18 86 857.8
20260902194126 12 86 4.8 6.4 0.00 0.00 0.00 78 857.4
20260902193513 13 82 1.6 6.4 0.00 0.00 0.00 73 857.1
20260902192512 13 41 0.0 6.4 0.00 0.00 0.00 73 857.0
20260902191126 13 97 3.2 6.4 0.00 0.00 0.00 70 856.9
20260902190512 13 55 3.2 6.4 0.00 0.00 0.00 72 856.9
20260902185513 13 82 4.8 6.4 0.00 0.00 0.00 70 856.7
20260902184126 13 78 3.2 6.4 0.00 0.00 0.00 72 856.6
20260902183513 13 70 4.8 6.4 0.00 0.00 0.00 69 856.5
20260902182513 13 67 3.2 4.8 0.00 0.00 0.00 72 856.4
20260902181126 13 76 4.8 6.4 0.00 0.03 0.00 68 856.3
20260902180513 13 79 3.2 6.4 0.00 0.05 0.00 75 856.2
20260902175513 13 69 3.2 6.4 0.00 0.05 0.00 72 855.9
20260902174126 14 75 4.8 8.0 0.00 0.05 0.00 68 855.9
20260902173512 13 76 3.2 6.4 0.00 0.05 0.00 74 855.9
20260902172513 14 63 4.8 8.0 0.00 0.05 0.00 70 855.8
20260902171126 14 60 3.2 4.8 0.00 0.05 0.00 74 855.7
20260902170513 14 83 3.2 6.4 0.00 0.05 0.00 76 855.6
20260902165513 15 73 3.2 4.8 0.00 0.05 0.00 77 855.7
20260902164126 15 75 3.2 4.8 0.00 0.05 0.00 72 855.7
20260902163513 15 74 3.2 6.4 0.00 0.05 0.00 75 855.7
20260902162513 15 86 3.2 4.8 0.00 0.05 0.00 72 855.7
20260902161126 15 70 1.6 4.8 0.00 0.05 0.00 70 855.7
20260902160512 16 257 1.6 4.8 0.00 0.05 0.00 70 855.7
20260902155513 16 255 0.0 3.2 0.00 0.05 0.00 66 855.7
20260902154126 16 86 1.6 3.2 0.00 0.05 0.00 63 855.7
20260902153513 16 114 3.2 6.4 0.00 0.05 0.00 61 855.8
20260902152512 16 125 1.6 4.8 0.00 0.05 0.00 57 855.9
20260902151126 15 65 1.6 3.2 0.00 0.05 0.00 71 855.9
20260902150513 15 71 1.6 3.2 0.00 0.05 0.00 70 855.8
20260902145513 16 50 0.0 3.2 0.00 0.05 0.00 72 855.9
20260902144126 16 103 1.6 3.2 0.00 0.05 0.00 71 855.9
20260902143512 16 105 1.6 4.8 0.00 0.05 0.00 70 855.9
20260902142513 16 164 1.6 3.2 0.00 0.05 0.00 64 855.9
20260902141126 17 239 1.6 3.2 0.00 0.05 0.00 63 855.8
20260902140513 17 256 3.2 6.4 0.00 0.05 0.00 54 855.8
20260902135513 17 253 1.6 4.8 0.00 0.05 0.00 58 855.8
20260902134125 16 160 1.6 4.8 0.00 0.05 0.00 64 855.9
20260902133513 17 98 0.0 3.2 0.00 0.05 0.00 58 855.8
20260902132513 16 7 0.0 4.8 0.00 0.05 0.00 58 855.9
20260902131126 16 283 4.8 9.7 0.00 0.05 0.00 64 855.9
20260902130513 16 280 4.8 9.7 0.00 0.05 0.00 62 855.9
20260902125513 17 274 4.8 9.7 0.00 0.05 0.00 59 856.0
20260902124125 17 167 1.6 6.4 0.00 0.05 0.00 54 855.9
20260902123513 16 119 3.2 4.8 0.00 0.05 0.00 56 856.2
20260902122513 16 124 3.2 4.8 0.00 0.05 0.00 56 856.0
20260902121126 17 228 1.6 3.2 0.00 0.05 0.00 56 856.1
20260902120512 17 306 1.6 4.8 0.00 0.05 0.00 58 856.2
20260902115512 16 114 1.6 6.4 0.00 0.05 0.00 57 856.2
20260902114126 16 152 1.6 6.4 0.00 0.05 0.00 59 856.3
20260902113513 16 237 3.2 6.4 0.00 0.05 0.00 60 856.4
20260902112513 16 277 3.2 9.7 0.00 0.05 0.00 59 856.4
20260902111126 16 270 1.6 6.4 0.00 0.05 0.00 62 856.4
20260902110513 16 305 1.6 4.8 0.00 0.05 0.00 60 856.5
20260902105512 16 311 1.6 4.8 0.00 0.05 0.00 60 856.5
20260902104126 16 321 3.2 11.3 0.00 0.05 0.00 57 856.5
20260902103513 16 244 3.2 9.7 0.00 0.05 0.00 56 856.6
20260902102512 17 260 3.2 11.3 0.00 0.05 0.00 53 856.7
20260902101126 16 280 3.2 8.0 0.00 0.05 0.00 56 856.7
20260902100513 16 283 6.4 11.3 0.00 0.05 0.00 56 856.8
20260902095513 16 274 4.8 11.3 0.00 0.05 0.00 57 856.9
20260902094126 15 281 8.0 14.5 0.00 0.05 0.00 57 856.9
20260902093513 15 274 8.0 14.5 0.00 0.05 0.00 59 856.9
20260902092513 15 278 8.0 14.5 0.00 0.05 0.00 60 856.9
20260902091125 15 276 8.0 14.5 0.00 0.05 0.00 61 856.7
20260902090513 15 279 8.0 14.5 0.00 0.05 0.00 60 856.7